Powrót do katalogu

STARLINK-31862

AktywnyŁącznośćVLEO
NORAD 59786·PAYLOAD·🇺🇸 United States

Wystrzelony May 18, 2024 z Cape Canaveral Space Force Station

Loading…

Następne Przeloty (najbliższe 24 godziny)

TLE

ŚwieżeSource: CelesTrak SupGP

Epoka: Sep 15, 2026, 02:35 UTC

1 59786C 24093E   26258.10812500 -.00037414  00000+0 -13552-2 0  2589
2 59786  43.0025 218.8322 0001298 268.7106 261.3477 15.27595007    19

Śledź STARLINK-31862 w czasie rzeczywistym z AllMySat

Download on the App Store